DL9GRB-13 Weather Reports


Display with metric or nautical units.
time (UTC)temp
F
wind
direction
speed
MPH
gust
MPH
rain 1hr
in
rain 24hr
in
rain mn
in
humidity
%
barometer
mb
20260507142508 59 294 14.0 24.0 0.00 0.00 0.00 45 1015.8
20260507142208 59 27 6.0 23.0 0.00 0.00 0.00 45 1015.8
20260507141908 60 55 15.0 23.0 0.00 0.00 0.00 44 1015.8
20260507141608 60 200 4.0 29.0 0.00 0.00 0.00 42 1015.9
20260507141308 60 111 7.0 39.0 0.00 0.00 0.00 41 1015.9
20260507141008 60 350 8.0 27.0 0.00 0.00 0.00 41 1015.7
20260507140708 60 284 11.0 27.0 0.00 0.00 0.00 41 1016.0
20260507140408 60 294 11.0 34.0 0.00 0.00 0.00 40 1015.9
20260507140108 59 286 10.0 29.0 0.00 0.00 0.00 40 1016.0
20260507135808 59 353 20.0 37.0 0.00 0.00 0.00 38 1016.0
20260507135508 60 276 6.0 31.0 0.00 0.00 0.00 40 1015.9
20260507135208 59 84 15.0 24.0 0.00 0.00 0.00 38 1015.9
20260507134908 59 62 8.0 23.0 0.00 0.00 0.00 38 1015.9
20260507134608 59 291 15.0 39.0 0.00 0.00 0.00 37 1015.8
20260507134308 59 3 11.0 36.0 0.00 0.00 0.00 39 1015.9
20260507134008 59 328 11.0 23.0 0.00 0.00 0.00 39 1016.0
20260507133708 59 303 8.0 27.0 0.00 0.00 0.00 39 1016.0
20260507133408 59 44 18.0 52.0 0.00 0.00 0.00 38 1015.8
20260507133108 59 78 6.0 23.0 0.00 0.00 0.00 40 1015.8
20260507132808 59 70 7.0 24.0 0.00 0.00 0.00 39 1015.8
20260507132508 59 30 15.0 23.0 0.00 0.00 0.00 39 1015.7
20260507132208 59 352 14.0 46.0 0.00 0.00 0.00 39 1015.7
20260507131908 59 89 9.0 31.0 0.00 0.00 0.00 40 1015.7
20260507131608 59 7 8.0 46.0 0.00 0.00 0.00 41 1015.8
20260507131308 59 12 13.0 26.0 0.00 0.00 0.00 42 1015.9
20260507131008 58 204 11.0 25.0 0.00 0.00 0.00 42 1015.9
20260507130708 58 349 11.0 27.0 0.00 0.00 0.00 44 1015.7
20260507130408 58 299 6.0 40.0 0.00 0.00 0.00 44 1015.8
20260507130108 58 13 15.0 27.0 0.00 0.00 0.00 45 1015.7
20260507125808 60 313 15.0 44.0 0.00 0.00 0.00 43 1015.6
20260507125508 60 122 13.0 21.0 0.00 0.00 0.00 43 1015.7
20260507125208 59 21 5.0 31.0 0.00 0.00 0.00 45 1015.7
20260507124908 59 326 23.0 33.0 0.00 0.00 0.00 43 1015.6
20260507124608 59 118 14.0 35.0 0.00 0.00 0.00 45 1015.6
20260507124308 59 31 28.0 32.0 0.00 0.00 0.00 44 1015.7
20260507124008 59 337 10.0 20.0 0.00 0.00 0.00 44 1015.7
20260507123708 59 107 5.0 25.0 0.00 0.00 0.00 44 1015.5
20260507123408 58 324 10.0 21.0 0.00 0.00 0.00 46 1015.5
20260507123108 58 281 22.0 25.0 0.00 0.00 0.00 45 1015.5
20260507122808 58 110 15.0 21.0 0.00 0.00 0.00 46 1015.6
20260507122508 58 297 6.0 31.0 0.00 0.00 0.00 46 1015.7
20260507122208 58 106 6.0 19.0 0.00 0.00 0.00 48 1015.5
20260507121908 58 274 13.0 27.0 0.00 0.00 0.00 47 1015.7
20260507121608 58 77 8.0 37.0 0.00 0.00 0.00 46 1015.5
20260507121308 58 332 17.0 23.0 0.00 0.00 0.00 47 1015.5
20260507121008 58 70 15.0 25.0 0.00 0.00 0.00 49 1015.6
20260507120708 58 271 11.0 32.0 0.00 0.00 0.00 49 1015.6
20260507120408 58 325 18.0 25.0 0.00 0.00 0.00 50 1015.4
20260507120108 58 345 11.0 27.0 0.00 0.00 0.00 50 1015.5
20260507115808 58 269 8.0 20.0 0.00 0.00 0.00 52 1015.4
20260507115508 57 78 10.0 19.0 0.00 0.00 0.00 52 1015.4
20260507115208 57 94 26.0 29.0 0.00 0.00 0.00 49 1015.3
20260507114908 57 128 10.0 30.0 0.00 0.00 0.00 52 1015.7
20260507114608 57 357 19.0 49.0 0.00 0.00 0.00 54 1015.6
20260507114308 57 17 6.0 23.0 0.00 0.00 0.00 53 1015.4
20260507114008 57 354 11.0 40.0 0.00 0.00 0.00 53 1015.4
20260507113708 57 103 15.0 34.0 0.00 0.00 0.00 53 1015.4
20260507113408 57 42 10.0 21.0 0.00 0.00 0.00 56 1015.6
20260507113108 57 43 10.0 25.0 0.00 0.00 0.00 56 1015.4
20260507112808 58 359 14.0 29.0 0.00 0.00 0.00 55 1015.4
20260507112508 58 36 6.0 31.0 0.00 0.00 0.00 53 1015.4
20260507112208 57 92 12.0 29.0 0.00 0.00 0.00 53 1015.4
20260507111908 57 42 8.0 35.0 0.00 0.00 0.00 54 1015.4
20260507111608 57 85 0.0 15.0 0.00 0.00 0.00 51 1015.3
20260507111308 57 351 28.0 42.0 0.00 0.00 0.00 52 1015.4
20260507111008 57 59 12.0 25.0 0.00 0.00 0.00 54 1015.4
20260507110708 57 296 8.0 23.0 0.00 0.00 0.00 54 1015.3
20260507110408 56 80 16.0 23.0 0.00 0.00 0.00 54 1015.3
20260507110108 56 348 23.0 26.0 0.00 0.00 0.00 53 1015.3
20260507105808 56 343 12.0 30.0 0.00 0.00 0.00 53 1015.4
20260507105508 56 6 11.0 39.0 0.00 0.00 0.00 53 1015.4
20260507105208 56 5 25.0 28.0 0.00 0.00 0.00 54 1015.4
20260507104908 56 56 19.0 36.0 0.00 0.00 0.00 54 1015.3
20260507104608 56 330 31.0 37.0 0.00 0.00 0.00 54 1015.2
20260507104308 56 49 7.0 34.0 0.00 0.00 0.00 56 1015.4
20260507104008 56 356 7.0 43.0 0.00 0.00 0.00 53 1015.3
20260507103708 56 68 13.0 22.0 0.00 0.00 0.00 52 1015.3
20260507103408 56 352 28.0 29.0 0.00 0.00 0.00 54 1015.4
20260507103108 56 20 15.0 25.0 0.00 0.00 0.00 55 1015.2
20260507102808 55 16 8.0 32.0 0.00 0.00 0.00 56 1015.4
20260507102508 56 357 47.0 50.0 0.00 0.00 0.00 55 1015.2
20260507102208 56 296 15.0 32.0 0.00 0.00 0.00 57 1015.3
20260507101908 56 310 13.0 35.0 0.00 0.00 0.00 58 1015.0
20260507101608 56 31 15.0 31.0 0.00 0.00 0.00 59 1015.4
20260507101308 56 345 22.0 39.0 0.00 0.00 0.00 58 1015.2
20260507101008 56 352 20.0 46.0 0.00 0.00 0.00 60 1015.1
20260507100708 56 313 22.0 29.0 0.00 0.00 0.00 58 1015.1
20260507100408 56 285 6.0 27.0 0.00 0.00 0.00 60 1014.9
20260507100108 56 19 17.0 31.0 0.00 0.00 0.00 59 1015.0
20260507095808 56 99 26.0 29.0 0.00 0.00 0.00 61 1015.1
20260507095508 56 7 31.0 32.0 0.00 0.00 0.00 60 1014.9
20260507095208 55 61 11.0 24.0 0.00 0.00 0.00 61 1015.0
20260507094908 56 61 35.0 39.0 0.00 0.00 0.00 59 1014.8
20260507094608 56 27 11.0 33.0 0.00 0.00 0.00 60 1015.0
20260507094308 56 323 12.0 23.0 0.00 0.00 0.00 59 1014.9
20260507094008 56 350 5.0 23.0 0.00 0.00 0.00 60 1014.9
20260507093708 56 9 5.0 20.0 0.00 0.00 0.00 61 1014.9
20260507093408 56 328 6.0 15.0 0.00 0.00 0.00 60 1014.9
20260507093108 56 354 15.0 26.0 0.00 0.00 0.00 59 1015.1
20260507092808 56 325 6.0 18.0 0.00 0.00 0.00 60 1015.0
20260507092508 56 25 9.0 28.0 0.00 0.00 0.00 60 1014.7
20260507092208 56 354 8.0 15.0 0.00 0.00 0.00 61 1014.7
20260507091908 56 349 16.0 27.0 0.00 0.00 0.00 60 1014.8
20260507091608 55 76 10.0 24.0 0.00 0.00 0.00 63 1014.8
20260507091308 55 323 14.0 38.0 0.00 0.00 0.00 63 1014.8
20260507091008 56 6 14.0 23.0 0.00 0.00 0.00 62 1014.5
20260507090708 55 113 4.0 23.0 0.00 0.00 0.00 63 1014.9
20260507090408 55 60 14.0 41.0 0.00 0.00 0.00 63 1014.9
20260507090108 56 94 19.0 30.0 0.00 0.00 0.00 62 1014.6
20260507085808 55 42 11.0 19.0 0.00 0.00 0.00 65 1014.6
20260507085508 55 21 9.0 23.0 0.00 0.00 0.00 64 1014.7
20260507085208 55 101 27.0 32.0 0.00 0.00 0.00 62 1014.7
20260507084908 55 86 11.0 20.0 0.00 0.00 0.00 63 1014.7
20260507084608 55 11 13.0 23.0 0.00 0.00 0.00 64 1014.6
20260507084308 55 19 9.0 27.0 0.00 0.00 0.00 65 1014.6
20260507084008 55 6 11.0 18.0 0.00 0.00 0.00 63 1014.6
20260507083708 55 358 6.0 34.0 0.00 0.00 0.00 63 1014.7
20260507083408 55 6 9.0 20.0 0.00 0.00 0.00 65 1014.5
20260507083108 55 24 17.0 42.0 0.00 0.00 0.00 64 1014.6
20260507082808 55 348 19.0 23.0 0.00 0.00 0.00 63 1014.7
20260507082508 55 79 10.0 19.0 0.00 0.00 0.00 64 1014.5
20260507082208 55 357 12.0 25.0 0.00 0.00 0.00 64 1014.4
20260507081908 54 26 11.0 23.0 0.00 0.00 0.00 65 1014.6
20260507081608 54 86 10.0 23.0 0.00 0.00 0.00 66 1014.5
20260507081308 54 12 17.0 19.0 0.00 0.00 0.00 65 1014.6
20260507081008 54 355 11.0 25.0 0.00 0.00 0.00 65 1014.5
20260507080708 54 80 19.0 35.0 0.00 0.00 0.00 64 1014.4
20260507080408 54 101 13.0 16.0 0.00 0.00 0.00 66 1014.4
20260507080108 53 89 4.0 30.0 0.00 0.00 0.00 67 1014.3
20260507075808 53 53 19.0 19.0 0.00 0.00 0.00 68 1014.3
20260507075508 53 360 16.0 21.0 0.00 0.00 0.00 67 1014.2
20260507075208 53 47 8.0 23.0 0.00 0.00 0.00 67 1014.2
20260507074908 53 32 6.0 27.0 0.00 0.00 0.00 66 1014.3
20260507074608 53 333 10.0 23.0 0.00 0.00 0.00 66 1014.0
20260507074308 53 116 11.0 28.0 0.00 0.00 0.00 65 1014.1
20260507074008 53 69 13.0 39.0 0.00 0.00 0.00 65 1014.1
20260507073708 53 69 16.0 31.0 0.00 0.00 0.00 64 1014.2
20260507073408 53 55 22.0 30.0 0.00 0.00 0.00 64 1014.0
20260507073108 53 341 9.0 32.0 0.00 0.00 0.00 63 1014.0
20260507072808 52 97 6.0 12.0 0.00 0.00 0.00 66 1014.0
20260507072509 51 67 15.0 40.0 0.00 0.00 0.00 66 1014.1
20260507072208 51 55 25.0 27.0 0.00 0.00 0.00 65 1014.0
20260507071908 51 123 23.0 37.0 0.00 0.00 0.00 65 1014.2
20260507071608 51 28 14.0 39.0 0.00 0.00 0.00 65 1014.1
20260507071308 51 82 26.0 39.0 0.00 0.00 0.00 65 1014.2
20260507071008 51 96 13.0 34.0 0.00 0.00 0.00 67 1013.9
20260507070708 51 80 20.0 33.0 0.00 0.00 0.00 65 1014.0
20260507070408 51 62 15.0 30.0 0.00 0.00 0.00 66 1014.0
20260507070108 51 98 15.0 35.0 0.00 0.00 0.00 65 1014.1
20260507065808 50 93 10.0 23.0 0.00 0.00 0.00 67 1014.0
20260507065508 50 261 16.0 51.0 0.00 0.00 0.00 67 1014.0
20260507065208 50 112 11.0 31.0 0.00 0.00 0.00 67 1013.9
20260507064908 50 93 8.0 20.0 0.00 0.00 0.00 70 1014.0
20260507064608 49 71 11.0 32.0 0.00 0.00 0.00 71 1014.1
20260507064308 49 67 19.0 30.0 0.00 0.00 0.00 71 1013.9
20260507064008 48 47 11.0 36.0 0.00 0.00 0.00 71 1014.1
20260507063708 47 19 22.0 23.0 0.00 0.00 0.00 74 1013.9
20260507063408 47 65 9.0 19.0 0.00 0.00 0.00 74 1013.8
20260507063108 47 47 26.0 27.0 0.00 0.00 0.00 75 1013.9
20260507062808 47 64 0.0 17.0 0.00 0.00 0.00 76 1013.8
20260507062508 47 34 8.0 17.0 0.00 0.00 0.00 76 1013.8
20260507062208 46 13 6.0 16.0 0.00 0.00 0.00 76 1013.8
20260507061908 46 102 11.0 24.0 0.00 0.00 0.00 76 1013.8
20260507061608 46 116 17.0 23.0 0.00 0.00 0.00 76 1013.7
20260507061308 46 308 9.0 13.0 0.00 0.00 0.00 77 1013.5
20260507061008 46 81 11.0 27.0 0.00 0.00 0.00 76 1013.7
20260507060708 46 355 0.0 15.0 0.00 0.00 0.00 76 1013.6
20260507060408 46 62 12.0 23.0 0.00 0.00 0.00 77 1013.5
20260507060108 46 86 6.0 12.0 0.00 0.00 0.00 78 1013.7
20260507055808 46 85 8.0 19.0 0.00 0.00 0.00 77 1013.5
20260507055508 46 57 11.0 16.0 0.00 0.00 0.00 78 1013.6
20260507055208 46 47 16.0 30.0 0.00 0.00 0.00 78 1013.5
20260507054908 46 77 15.0 24.0 0.00 0.00 0.00 78 1013.4
20260507054608 46 48 15.0 28.0 0.00 0.00 0.00 78 1013.4
20260507054308 46 148 11.0 16.0 0.00 0.00 0.00 79 1013.4
20260507054008 46 137 12.0 15.0 0.00 0.00 0.00 79 1013.2
20260507053708 46 123 13.0 13.0 0.00 0.00 0.00 79 1013.4
20260507053408 46 48 12.0 30.0 0.00 0.00 0.00 79 1013.2
20260507053108 46 83 16.0 25.0 0.00 0.00 0.00 79 1013.4
20260507052808 45 104 15.0 20.0 0.00 0.00 0.00 80 1013.2
20260507052508 45 86 11.0 20.0 0.00 0.00 0.00 79 1012.9
20260507052208 45 76 5.0 21.0 0.00 0.00 0.00 80 1013.1
20260507051908 45 14 5.0 13.0 0.00 0.00 0.00 80 1013.1
20260507051608 45 71 11.0 25.0 0.00 0.00 0.00 80 1013.0
20260507051308 45 87 14.0 23.0 0.00 0.00 0.00 80 1013.0
20260507051008 45 67 16.0 20.0 0.00 0.00 0.00 80 1013.0
20260507050708 45 133 9.0 20.0 0.00 0.00 0.00 80 1013.1
20260507050408 45 98 8.0 19.0 0.00 0.00 0.00 80 1012.9
20260507050108 45 62 11.0 21.0 0.00 0.00 0.00 80 1012.9
20260507045808 45 78 0.0 12.0 0.00 0.00 0.00 81 1012.9
20260507045508 45 106 13.0 26.0 0.00 0.00 0.00 81 1012.8
20260507045208 45 85 11.0 15.0 0.00 0.00 0.00 81 1012.7
20260507044908 45 57 11.0 19.0 0.00 0.00 0.00 81 1012.8
20260507044608 45 127 15.0 19.0 0.00 0.00 0.00 81 1012.7
20260507044308 45 72 7.0 28.0 0.00 0.00 0.00 81 1012.8
20260507044008 44 177 11.0 16.0 0.00 0.00 0.00 81 1012.7
20260507043708 44 171 13.0 23.0 0.00 0.00 0.00 81 1012.5
20260507043408 44 26 18.0 23.0 0.00 0.00 0.00 81 1012.8
20260507043108 44 83 15.0 20.0 0.00 0.00 0.00 81 1012.6
20260507042808 44 117 16.0 33.0 0.00 0.00 0.00 81 1012.7
20260507042508 44 207 9.0 21.0 0.00 0.00 0.00 81 1012.5
20260507042208 44 157 8.0 15.0 0.00 0.00 0.00 82 1012.5
20260507041908 44 117 24.0 36.0 0.00 0.00 0.00 82 1012.5
20260507041608 44 167 14.0 23.0 0.00 0.00 0.00 82 1012.7
20260507041308 44 97 14.0 17.0 0.00 0.00 0.00 82 1012.5
20260507041008 44 127 8.0 19.0 0.00 0.00 0.00 82 1012.5
20260507040708 44 102 14.0 22.0 0.00 0.00 0.00 82 1012.4
20260507040408 44 118 5.0 10.0 0.00 0.00 0.00 82 1012.6
20260507040108 44 84 12.0 19.0 0.00 0.00 0.00 82 1012.4
20260507035808 44 143 11.0 21.0 0.00 0.00 0.00 83 1012.2
20260507035508 44 61 7.0 18.0 0.00 0.00 0.00 83 1012.5
20260507035208 44 138 14.0 27.0 0.00 0.00 0.00 83 1012.5
20260507034908 44 99 12.0 18.0 0.00 0.00 0.00 83 1012.4
20260507034608 44 81 8.0 34.0 0.00 0.00 0.00 83 1012.4
20260507034308 44 121 11.0 20.0 0.00 0.00 0.00 83 1012.3
20260507034008 44 131 9.0 14.0 0.00 0.00 0.00 83 1012.4
20260507033708 44 167 6.0 19.0 0.00 0.00 0.00 83 1012.4
20260507033408 44 80 10.0 17.0 0.00 0.00 0.00 83 1012.4
20260507033108 44 146 14.0 19.0 0.00 0.00 0.00 83 1012.3
20260507032808 44 67 12.0 22.0 0.00 0.00 0.00 83 1012.3
20260507032508 44 350 6.0 22.0 0.00 0.00 0.00 83 1012.2
20260507032208 44 7 8.0 22.0 0.00 0.00 0.00 83 1012.4
20260507031908 44 76 11.0 23.0 0.00 0.00 0.00 82 1012.4
20260507031608 44 107 11.0 22.0 0.00 0.00 0.00 83 1012.1
20260507031308 44 78 5.0 19.0 0.00 0.00 0.00 83 1012.2
20260507031008 44 95 8.0 18.0 0.00 0.00 0.00 83 1012.2
20260507030708 44 57 12.0 21.0 0.00 0.00 0.00 83 1012.3
20260507030408 44 81 10.0 23.0 0.00 0.00 0.00 83 1012.2
20260507030108 44 14 6.0 21.0 0.00 0.00 0.00 83 1012.0
20260507025808 44 55 17.0 28.0 0.00 0.00 0.00 84 1011.8
20260507025508 44 113 8.0 18.0 0.00 0.00 0.00 84 1012.0
20260507025208 44 74 15.0 22.0 0.00 0.00 0.00 84 1012.1
20260507024908 44 51 6.0 18.0 0.00 0.00 0.00 84 1012.0
20260507024608 44 98 12.0 24.0 0.00 0.00 0.00 84 1012.0
20260507024308 44 29 6.0 19.0 0.00 0.00 0.00 84 1011.9
20260507024008 44 40 9.0 21.0 0.00 0.00 0.00 84 1012.0
20260507023708 44 39 7.0 30.0 0.00 0.00 0.00 84 1011.9
20260507023408 44 57 6.0 20.0 0.00 0.00 0.00 84 1011.9
20260507023108 44 83 4.0 27.0 0.00 0.00 0.00 84 1011.8
20260507022808 44 102 11.0 16.0 0.00 0.00 0.00 84 1011.9
20260507022508 44 76 9.0 23.0 0.00 0.00 0.00 84 1011.8
20260507022208 44 103 10.0 21.0 0.00 0.00 0.00 84 1012.0
20260507021908 44 106 4.0 16.0 0.00 0.00 0.00 84 1012.0
20260507021608 44 43 12.0 19.0 0.00 0.00 0.00 84 1012.0
20260507021308 44 65 10.0 15.0 0.00 0.00 0.00 85 1012.1
20260507021008 44 70 19.0 22.0 0.00 0.00 0.00 85 1011.9
20260507020708 44 95 6.0 23.0 0.00 0.00 0.00 85 1012.0
20260507020408 44 37 0.0 19.0 0.00 0.00 0.00 85 1011.9
20260507020108 44 70 17.0 27.0 0.00 0.00 0.00 85 1011.8
20260507015808 44 118 14.0 26.0 0.00 0.00 0.00 85 1011.7
20260507015508 44 69 8.0 16.0 0.00 0.00 0.00 85 1011.8
20260507015208 44 79 11.0 12.0 0.00 0.00 0.00 85 1011.6
20260507014908 44 87 0.0 13.0 0.00 0.00 0.00 85 1011.5
20260507014608 44 82 8.0 23.0 0.00 0.00 0.00 85 1011.6
20260507014308 44 97 11.0 23.0 0.00 0.00 0.00 85 1011.5
20260507014008 44 88 12.0 18.0 0.00 0.00 0.00 85 1011.5
20260507013708 44 63 0.0 20.0 0.00 0.00 0.00 85 1011.7
20260507013408 44 108 0.0 14.0 0.00 0.00 0.00 85 1011.5
20260507013108 44 61 16.0 16.0 0.00 0.00 0.00 86 1011.3
20260507012808 44 105 10.0 21.0 0.00 0.00 0.00 86 1011.5
20260507012508 44 100 7.0 20.0 0.00 0.00 0.00 86 1011.5
20260507012208 44 96 6.0 17.0 0.00 0.00 0.00 86 1011.5
20260507011908 44 144 0.0 15.0 0.00 0.00 0.00 86 1011.6
20260507011608 44 96 11.0 19.0 0.00 0.00 0.00 86 1011.5
20260507011308 44 34 4.0 11.0 0.00 0.00 0.00 86 1011.4
20260507011008 44 88 9.0 17.0 0.00 0.00 0.00 86 1011.5
20260507010708 44 16 5.0 15.0 0.00 0.00 0.00 86 1011.5
20260507010408 44 84 6.0 11.0 0.00 0.00 0.00 86 1011.5
20260507010108 44 71 6.0 11.0 0.00 0.00 0.00 85 1011.5
20260507005808 44 97 13.0 15.0 0.00 0.00 0.00 85 1011.6
20260507005508 44 96 9.0 11.0 0.00 0.00 0.00 85 1011.4
20260507005208 44 21 7.0 15.0 0.00 0.00 0.00 85 1011.5
20260507004908 44 45 10.0 16.0 0.00 0.00 0.00 85 1011.4
20260507004608 44 355 10.0 15.0 0.00 0.00 0.00 85 1011.4
20260507004308 44 73 16.0 16.0 0.00 0.00 0.00 85 1011.3
20260507004008 44 48 7.0 15.0 0.00 0.00 0.00 85 1011.5
20260507003708 44 111 0.0 23.0 0.00 0.00 0.00 84 1011.4
20260507003408 44 87 18.0 18.0 0.00 0.00 0.00 84 1011.4
20260507003108 44 51 0.0 11.0 0.00 0.00 0.00 84 1011.4
20260507002808 44 75 13.0 27.0 0.00 0.00 0.00 84 1011.2
20260507002508 44 15 6.0 17.0 0.00 0.00 0.00 84 1011.6
20260507002208 44 71 14.0 19.0 0.00 0.00 0.00 84 1011.3
20260507001908 44 93 19.0 29.0 0.00 0.00 0.00 84 1011.3
20260507001608 44 100 8.0 12.0 0.00 0.00 0.00 84 1011.3
20260507001308 44 86 17.0 27.0 0.00 0.00 0.00 84 1011.4
20260507001008 44 132 0.0 19.0 0.00 0.00 0.00 84 1011.4
20260507000708 44 48 6.0 19.0 0.00 0.00 0.00 84 1011.4
20260507000408 44 338 6.0 16.0 0.00 0.00 0.00 84 1011.4
20260507000108 44 72 11.0 23.0 0.00 0.00 0.00 84 1011.4
20260506235808 44 71 6.0 17.0 0.00 0.00 0.00 84 1011.2
20260506235508 44 63 13.0 31.0 0.00 0.00 0.00 84 1011.2
20260506235208 44 76 16.0 21.0 0.00 0.00 0.00 84 1011.3
20260506234908 44 95 7.0 20.0 0.00 0.00 0.00 84 1011.2
20260506234608 44 113 5.0 34.0 0.00 0.00 0.00 84 1011.2
20260506234308 44 89 0.0 25.0 0.00 0.00 0.00 84 1011.2
20260506234008 44 83 17.0 19.0 0.00 0.00 0.00 84 1011.2
20260506233708 44 66 17.0 25.0 0.00 0.00 0.00 84 1011.3
20260506233408 44 119 10.0 36.0 0.00 0.00 0.00 84 1011.3
20260506233108 44 106 7.0 17.0 0.00 0.00 0.00 85 1011.1
20260506232808 44 67 13.0 23.0 0.00 0.00 0.00 85 1011.5
20260506232508 44 49 12.0 14.0 0.00 0.00 0.00 85 1011.3
20260506232208 44 44 11.0 23.0 0.00 0.00 0.00 85 1011.3
20260506231908 44 103 10.0 14.0 0.00 0.00 0.00 85 1011.2
20260506231608 44 83 18.0 27.0 0.00 0.00 0.00 85 1011.3
20260506231308 44 94 10.0 12.0 0.00 0.00 0.00 85 1011.3
20260506231008 44 48 23.0 26.0 0.00 0.00 0.00 85 1011.0
20260506230708 44 114 8.0 17.0 0.00 0.00 0.00 85 1011.2
20260506230408 44 94 6.0 7.0 0.00 0.00 0.00 85 1011.3
20260506230108 44 78 6.0 19.0 0.00 0.00 0.00 85 1011.0
20260506225808 44 92 9.0 16.0 0.00 0.00 0.00 85 1011.1
20260506225508 44 83 7.0 24.0 0.00 0.00 0.00 85 1011.0
20260506225208 44 58 12.0 16.0 0.00 0.00 0.00 85 1011.0
20260506224908 44 105 14.0 16.0 0.00 0.00 0.00 85 1011.2
20260506224608 44 66 7.0 22.0 0.00 0.00 0.00 85 1010.9
20260506224308 44 36 9.0 18.0 0.00 0.00 0.00 85 1011.0
20260506224008 44 109 10.0 13.0 0.00 0.00 0.00 85 1011.0
20260506223708 44 81 11.0 22.0 0.00 0.00 0.00 85 1010.9
20260506223408 44 120 10.0 13.0 0.00 0.00 0.00 85 1010.9
20260506223108 44 92 15.0 29.0 0.00 0.00 0.00 85 1010.9
20260506222808 44 73 10.0 15.0 0.00 0.00 0.00 84 1010.7
20260506222508 44 145 0.0 15.0 0.00 0.00 0.00 84 1010.9
20260506222208 44 32 0.0 25.0 0.00 0.00 0.00 84 1010.9
20260506221908 44 72 6.0 16.0 0.00 0.00 0.00 84 1010.8
20260506221608 45 33 0.0 17.0 0.00 0.00 0.00 84 1010.8
20260506221308 45 83 10.0 14.0 0.00 0.00 0.00 84 1010.7
20260506221008 45 55 0.0 15.0 0.00 0.00 0.00 83 1010.7
20260506220708 45 19 8.0 13.0 0.00 0.00 0.00 83 1010.6
20260506220408 45 38 7.0 20.0 0.00 0.00 0.00 83 1010.8
20260506220108 45 87 8.0 14.0 0.00 0.00 0.00 83 1010.7
20260506215808 45 56 16.0 16.0 0.00 0.00 0.00 82 1010.7
20260506215508 46 72 16.0 23.0 0.00 0.00 0.00 82 1010.7
20260506215208 46 95 7.0 14.0 0.00 0.00 0.00 82 1010.8
20260506214908 46 59 13.0 17.0 0.00 0.00 0.00 82 1010.9
20260506214608 46 71 7.0 39.0 0.00 0.00 0.00 82 1010.8
20260506214308 46 63 16.0 25.0 0.00 0.00 0.00 82 1010.8
20260506214008 46 84 12.0 22.0 0.00 0.00 0.00 82 1010.8
20260506213708 46 79 8.0 14.0 0.00 0.00 0.00 81 1010.7
20260506213408 46 93 19.0 36.0 0.00 0.00 0.00 81 1010.6
20260506213108 46 89 8.0 21.0 0.00 0.00 0.00 81 1010.5
20260506212808 46 80 10.0 16.0 0.00 0.00 0.00 81 1010.6
20260506212508 46 102 11.0 22.0 0.00 0.00 0.00 81 1010.6
20260506212208 46 65 6.0 15.0 0.00 0.00 0.00 81 1010.5
20260506211908 46 92 11.0 28.0 0.00 0.00 0.00 81 1010.5
20260506211608 46 48 7.0 19.0 0.00 0.00 0.00 81 1010.5
20260506211308 46 239 7.0 34.0 0.00 0.00 0.00 81 1010.2
20260506211008 46 117 0.0 19.0 0.00 0.00 0.00 81 1010.4
20260506210708 46 94 7.0 21.0 0.00 0.00 0.00 81 1010.3
20260506210408 46 111 12.0 19.0 0.00 0.00 0.00 81 1010.4
20260506210108 46 109 30.0 38.0 0.00 0.00 0.00 81 1010.5
20260506205808 46 59 11.0 21.0 0.00 0.00 0.00 81 1010.6
20260506205508 46 71 24.0 27.0 0.00 0.00 0.00 81 1010.4
20260506205208 46 140 11.0 22.0 0.00 0.00 0.00 81 1010.5
20260506204908 46 67 14.0 23.0 0.00 0.00 0.00 81 1010.3
20260506204608 46 112 18.0 23.0 0.00 0.00 0.00 81 1010.3
20260506204308 46 58 14.0 23.0 0.00 0.00 0.00 81 1010.4
20260506204008 46 51 6.0 16.0 0.00 0.00 0.00 81 1010.2
20260506203708 46 114 8.0 22.0 0.00 0.00 0.00 81 1010.4
20260506203408 46 48 20.0 35.0 0.00 0.00 0.00 81 1010.5
20260506203108 47 102 15.0 27.0 0.00 0.00 0.00 81 1010.4
20260506202808 47 77 11.0 31.0 0.00 0.00 0.00 81 1010.2
20260506202508 47 79 15.0 25.0 0.00 0.00 0.00 81 1010.4
20260506202208 47 84 7.0 21.0 0.00 0.00 0.00 81 1010.3
20260506201908 47 126 15.0 41.0 0.00 0.00 0.00 81 1010.1
20260506201608 47 61 11.0 24.0 0.00 0.00 0.00 81 1009.9
20260506201308 47 108 13.0 40.0 0.00 0.00 0.00 81 1010.0
20260506201008 47 40 11.0 39.0 0.00 0.00 0.00 81 1010.0
20260506200708 47 109 8.0 13.0 0.00 0.00 0.00 81 1010.2
20260506200408 47 86 13.0 33.0 0.00 0.00 0.00 81 1010.0
20260506200108 47 123 19.0 44.0 0.00 0.00 0.00 81 1010.0
20260506195808 47 72 21.0 34.0 0.00 0.00 0.00 81 1010.0
20260506195508 47 108 13.0 37.0 0.00 0.00 0.00 81 1009.8
20260506195208 47 37 19.0 20.0 0.00 0.00 0.00 81 1009.9
20260506194908 47 22 5.0 18.0 0.00 0.00 0.00 81 1010.0
20260506194608 47 108 10.0 27.0 0.00 0.00 0.00 81 1009.9
20260506194308 47 61 23.0 31.0 0.00 0.00 0.00 81 1009.9
20260506194008 47 70 10.0 23.0 0.00 0.00 0.00 81 1010.1
20260506193708 47 46 27.0 34.0 0.00 0.00 0.00 81 1010.0
20260506193408 47 104 23.0 37.0 0.00 0.00 0.00 81 1009.8
20260506193108 47 55 26.0 36.0 0.00 0.00 0.00 81 1009.8
20260506192808 47 73 22.0 38.0 0.00 0.00 0.00 81 1009.8
20260506192508 47 48 25.0 29.0 0.00 0.00 0.00 80 1009.9
20260506192208 47 71 15.0 27.0 0.00 0.00 0.00 81 1009.7
20260506191908 47 125 17.0 37.0 0.00 0.00 0.00 80 1009.8
20260506191608 47 77 28.0 40.0 0.00 0.00 0.00 80 1009.6
20260506191308 48 112 6.0 32.0 0.00 0.00 0.00 80 1009.7
20260506191008 48 91 5.0 27.0 0.00 0.00 0.00 80 1009.8
20260506190708 48 57 30.0 34.0 0.00 0.00 0.00 80 1009.7
20260506190408 48 124 25.0 27.0 0.00 0.00 0.00 80 1009.7
20260506190108 48 59 17.0 25.0 0.00 0.00 0.00 80 1009.6
20260506185808 48 87 10.0 38.0 0.00 0.00 0.00 80 1009.7
20260506185508 48 51 0.0 30.0 0.00 0.00 0.00 80 1009.6
20260506185208 48 105 11.0 15.0 0.00 0.00 0.00 81 1009.7
20260506184908 48 80 6.0 23.0 0.00 0.00 0.00 80 1009.5
20260506184608 48 108 9.0 18.0 0.00 0.00 0.00 80 1009.5
20260506184308 48 103 15.0 18.0 0.00 0.00 0.00 80 1009.4
20260506184008 48 119 16.0 23.0 0.00 0.00 0.00 80 1009.4
20260506183708 48 92 19.0 40.0 0.00 0.00 0.00 79 1009.5
20260506183408 48 100 10.0 32.0 0.00 0.00 0.00 79 1009.3
20260506183108 48 35 25.0 28.0 0.00 0.00 0.00 79 1009.4
20260506182808 48 44 24.0 42.0 0.00 0.00 0.00 79 1009.4
20260506182508 48 78 14.0 50.0 0.00 0.00 0.00 79 1009.3
20260506182208 48 94 11.0 35.0 0.00 0.00 0.00 79 1009.2
20260506181908 49 48 13.0 29.0 0.00 0.00 0.00 79 1009.1
20260506181608 49 88 25.0 27.0 0.00 0.00 0.00 80 1009.3
20260506181308 49 141 15.0 40.0 0.00 0.00 0.00 80 1008.9
20260506181008 49 82 19.0 38.0 0.00 0.00 0.00 80 1009.2
20260506180708 49 32 12.0 29.0 0.00 0.00 0.00 80 1009.0
20260506180408 49 60 11.0 36.0 0.00 0.00 0.00 80 1009.2
20260506180108 49 98 24.0 39.0 0.00 0.00 0.00 80 1009.0
20260506175808 49 134 21.0 42.0 0.00 0.00 0.00 80 1009.1
20260506175508 49 68 19.0 37.0 0.00 0.00 0.00 79 1009.0
20260506175208 49 51 25.0 33.0 0.00 0.00 0.00 79 1009.1
20260506174908 49 83 13.0 39.0 0.00 0.00 0.00 79 1008.8
20260506174608 49 59 34.0 39.0 0.00 0.00 0.00 79 1009.0
20260506174308 50 59 27.0 43.0 0.00 0.00 0.00 79 1009.0
20260506174008 50 84 15.0 43.0 0.00 0.00 0.00 79 1009.2
20260506173708 50 64 16.0 31.0 0.00 0.00 0.00 79 1008.9
20260506173408 50 63 25.0 31.0 0.00 0.00 0.00 79 1008.7
20260506173108 50 87 8.0 46.0 0.00 0.00 0.00 79 1008.9
20260506172808 50 86 16.0 29.0 0.00 0.00 0.00 79 1008.9
20260506172508 50 74 11.0 23.0 0.00 0.00 0.00 79 1008.7
20260506172208 50 74 6.0 34.0 0.00 0.00 0.00 78 1008.8
20260506171908 50 91 9.0 45.0 0.00 0.00 0.00 78 1008.6
20260506171608 51 67 22.0 42.0 0.00 0.00 0.00 78 1008.7
20260506171308 51 83 18.0 24.0 0.00 0.00 0.00 78 1008.5
20260506171008 51 74 21.0 23.0 0.00 0.00 0.00 78 1008.4
20260506170708 51 116 7.0 27.0 0.00 0.00 0.00 77 1008.4
20260506170408 51 31 19.0 26.0 0.00 0.00 0.00 77 1008.6
20260506170108 51 72 19.0 29.0 0.00 0.00 0.00 77 1008.4
20260506165808 51 30 15.0 28.0 0.00 0.00 0.00 76 1008.6
20260506165508 51 97 14.0 32.0 0.00 0.00 0.00 75 1008.3
20260506165208 52 111 14.0 35.0 0.00 0.00 0.00 75 1008.4
20260506164908 52 89 13.0 37.0 0.00 0.00 0.00 74 1008.2
20260506164608 52 71 20.0 30.0 0.00 0.00 0.00 74 1008.3
20260506164308 52 56 16.0 35.0 0.00 0.00 0.00 73 1008.2
20260506164008 52 115 18.0 27.0 0.00 0.00 0.00 73 1008.2
20260506163708 53 99 27.0 44.0 0.00 0.00 0.00 72 1008.3
20260506163408 53 130 25.0 41.0 0.00 0.00 0.00 71 1008.2
20260506163108 53 63 15.0 31.0 0.00 0.00 0.00 70 1008.2
20260506162808 53 74 11.0 39.0 0.00 0.00 0.00 69 1008.2
20260506162508 54 42 15.0 36.0 0.00 0.00 0.00 69 1008.2
20260506162208 54 93 10.0 25.0 0.00 0.00 0.00 68 1008.2
20260506161908 54 31 11.0 29.0 0.00 0.00 0.00 67 1008.2
20260506161608 54 197 12.0 23.0 0.00 0.00 0.00 67 1008.1
20260506161308 54 9 16.0 23.0 0.00 0.00 0.00 67 1007.9
20260506161008 54 99 18.0 31.0 0.00 0.00 0.00 65 1008.0
20260506160708 54 298 10.0 30.0 0.00 0.00 0.00 66 1008.1
20260506160408 54 94 16.0 33.0 0.00 0.00 0.00 66 1008.0
20260506160108 54 88 15.0 18.0 0.00 0.00 0.00 68 1007.8
20260506155808 53 82 12.0 31.0 0.00 0.00 0.00 72 1007.9
20260506155508 53 276 7.0 18.0 0.00 0.00 0.00 77 1007.9
20260506155208 53 265 9.0 23.0 0.00 0.00 0.00 77 1008.1
20260506154908 53 54 9.0 21.0 0.00 0.00 0.00 76 1008.0
20260506154608 53 21 16.0 25.0 0.00 0.00 0.00 75 1008.0
20260506154308 54 350 13.0 19.0 0.00 0.00 0.00 74 1008.0
20260506154008 54 37 18.0 22.0 0.00 0.00 0.00 75 1008.0
20260506153708 54 14 5.0 24.0 0.00 0.00 0.00 75 1008.1
20260506153408 54 47 12.0 25.0 0.00 0.00 0.00 75 1008.1
20260506153108 54 79 12.0 23.0 0.00 0.00 0.00 74 1008.3
20260506152808 55 26 11.0 21.0 0.00 0.00 0.00 74 1008.0
20260506152508 55 28 11.0 18.0 0.00 0.00 0.00 74 1007.9
20260506152208 54 87 8.0 21.0 0.00 0.00 0.00 74 1008.2
20260506151908 55 77 23.0 36.0 0.00 0.00 0.00 74 1008.2
20260506151608 55 55 12.0 18.0 0.00 0.00 0.00 75 1008.1
20260506151308 55 87 8.0 21.0 0.00 0.00 0.00 75 1008.2
20260506151008 55 4 15.0 27.0 0.00 0.00 0.00 74 1008.1
20260506150708 55 358 10.0 23.0 0.00 0.00 0.00 74 1008.2
20260506150408 55 274 14.0 22.0 0.00 0.00 0.00 73 1008.2
20260506150108 55 24 11.0 28.0 0.00 0.00 0.00 73 1008.1
20260506145808 55 333 17.0 20.0 0.00 0.00 0.00 70 1008.4
20260506145508 55 50 6.0 22.0 0.00 0.00 0.00 70 1008.3
20260506145208 55 358 18.0 27.0 0.00 0.00 0.00 70 1008.2
20260506144908 55 111 17.0 18.0 0.00 0.00 0.00 71 1008.1
20260506144608 55 2 8.0 20.0 0.00 0.00 0.00 72 1008.0
20260506144308 55 353 21.0 21.0 0.00 0.00 0.00 71 1007.9
20260506144008 55 5 15.0 19.0 0.00 0.00 0.00 71 1008.1
20260506143708 55 65 17.0 24.0 0.00 0.00 0.00 71 1008.1
20260506143408 55 83 7.0 20.0 0.00 0.00 0.00 71 1008.0
20260506143108 55 319 5.0 19.0 0.00 0.00 0.00 71 1008.0
20260506142808 55 112 7.0 17.0 0.00 0.00 0.00 72 1008.2